Regional Weather Roundup
Issued by NWS

Home | Current Version | Previous Version | Graphics & Text | Print | Product List | Glossary Off
Versions: 1 2 3 4 5 6 7 8 9 10 11 12 13 14 15 16 17 18 19 20 21 22 23 24 25 26 27 28 29 30 31 32 33 34 35 36 37 38 39 40 41 42 43 44 45 46 47 48 49 50

000
ASUS43 KDMX 241407
RWRIA

WEATHER ROUNDUP FOR IOWA
NATIONAL WEATHER SERVICE DES MOINES IA
800 AM CST MON NOV 24 2014

NOTE: "FAIR" INDICATES FEW OR NO CLOUDS BELOW 12,000 FEET WITH NO
SIGNIFICANT WEATHER AND/OR OBSTRUCTIONS TO VISIBILITY.

* - THESE STATIONS ARE NOT NWS STATIONS...THUS NOT UNDER NWS
QUALITY CONTROL.  THEY ALSO DO NOT REPORT WEATHER SUCH
AS PRECIPITATION OR FOG.

IAZ001>003-012>014-020>022-031>034-043>046-241500-
   NORTHWEST IOWA

CITY           SKY/WX    TMP DP  RH WIND       PRES   REMARKS
CARROLL *      CLOUDY    25  18  74 NW24G36   29.54R WCI   9
CHEROKEE *     CLOUDY    21  16  79 NW17G28   29.58R WCI   7
DENISON *      CLOUDY    23  14  68 NW26G33   29.57R WCI   6
LE MARS *      CLOUDY    23  16  74 NW24G36   29.62R WCI   7
ORANGE CITY *  CLOUDY    21  16  79 NW26G33   29.58R WCI   4
SHELDON *      FLURRIES  19  14  79 NW21G36   29.55R WCI   3
SIOUX CITY     CLOUDY    25  16  68 NW26G35   29.63R WCI   9
SPENCER        CLOUDY    20  12  71 NW26G32   29.53R WCI   2
STORM LAKE *   CLOUDY    21  14  73 NW21G30   29.55R WCI   6
$$

IAZ055>058-069>071-079>083-090>094-241500-
   SOUTHWEST IOWA

CITY           SKY/WX    TMP DP  RH WIND       PRES   REMARKS
ATLANTIC *     CLOUDY    27  18  69 NW22G30   29.59R WCI  12
AUDUBON *      PTCLDY    25  16  68 NW15G22   29.56R WCI  12
CLARINDA *     CLOUDY    28  21  74 NW15G28   29.64R WCI  17
COUNCIL BLFS * CLOUDY    27  19  74 NW18G33   29.62R WCI  13
CRESTON *      CLOUDY    25  19  80 NW24G32   29.56R WCI   9
HARLAN  *      CLOUDY    27  19  74 NW22G29   29.63R WCI  12
LAMONI         CLOUDY    27  20  75 W25       29.56R WCI  12
RED OAK *      CLOUDY    28  19  69 NW16G28   29.62R WCI  17
SHENANDOAH *   CLOUDY    30  21  69 NW17G26   29.65R WCI  18
$$

IAZ047>049-059>061-072>074-084-241500-
   CENTRAL IOWA

CITY           SKY/WX    TMP DP  RH WIND       PRES   REMARKS
AMES           CLOUDY    25  19  78 NW22G35   29.48R WCI  10
ANKENY *       CLOUDY    25  19  80 NW22G30   29.50R WCI  10
CHARITON *     CLOUDY    27  19  74 NW20G30   29.51R WCI  13
DES MOINES     CLOUDY    26  17  68 NW22G35   29.52R WCI  12
GRINNELL*      CLOUDY    27  23  86 W25G31    29.45R WCI  11
KNOXVILLE *    CLOUDY    28  21  74 NW21G32   29.48R WCI  15
MARSHALLTOWN   CLOUDY    25  22  88 NW29G37   29.42R WCI   8
PELLA *        CLOUDY    28  23  80 W24G32    29.49R WCI  14
PERRY *        CLOUDY    25  19  80 NW18G24   29.54R WCI  11
$$

IAZ004>006-015-016-023>025-035-036-241500-
   NORTH CENTRAL IOWA

CITY           SKY/WX    TMP DP  RH WIND       PRES   REMARKS
ALGONA *       CLOUDY    21  16  79 NW24G32   29.49R WCI   4
CLARION *      CLOUDY    23  19  86 NW29G36   29.46R WCI   6
ESTHERVILLE    CLOUDY    18  12  77 NW30G37   29.50R WCI  -1
FORT DODGE *   CLOUDY    23  14  68 NW15G24   29.50R WCI  10
MASON CITY     CLOUDY    21  18  88 NW28G37   29.41R WCI   3
FOREST CITY *  CLOUDY    21  19  93 NW24G32   29.42R WCI   4
IOWA FALLS *   CLOUDY    23  21  93 W30G38    29.43R FOG     WCI   5
$$

IAZ007>011-017>019-026>030-037>042-050>054-066-241500-
   NORTHEAST IOWA

CITY           SKY/WX    TMP DP  RH WIND       PRES   REMARKS
CEDAR RAPIDS   LGT SNOW  27  25  92 NW31      29.36R FOG     WCI  10
CHARLES CITY * CLOUDY    23  21  93 NW25G36   29.36R FOG     WCI   7
CLINTON *      CLOUDY    32  27  80 W23G32    29.29R VSB 1   WCI  19
DECORAH *      LGT RAIN  27  25  93 NW18G28   29.27R WCI  13
DUBUQUE        LGT SNOW  30  28  92 W23G30    29.24R FOG     WCI  17
MONTICELLO *   LGT SNOW  28  27  93 W29G36    29.29R WCI  13
OELWEIN *      MIX PCPN  25  23  93 NW30      29.32R WCI   8
WATERLOO       FRZ RAIN  24  22  91 NW20G37   29.36R FOG     WCI  10
$$

IAZ064-065-067-068-078-241500-
   EAST CENTRAL IOWA

CITY           SKY/WX    TMP DP  RH WIND       PRES   REMARKS
DAVENPORT      SNOW      29  27  92 W25       29.31R VSB 1/2 WCI  14
IOWA CITY      LGT SNOW  29  27  92 NW22G33   29.40R FOG     WCI  15
MT. PLEASANT * CLOUDY    30  28  93 W18G28    29.43R WCI  18
MUSCATINE *    CLOUDY    32  27  80 W28G35    29.38R HAZE    WCI  18
QUAD CITIES    LGT SNOW  31  28  89 W20G33    29.32R VSB 3/4 WCI  19
$$

IAZ062-063-075>077-085>089-095>099-241500-
   SOUTHEAST IOWA

CITY           SKY/WX    TMP DP  RH WIND       PRES   REMARKS
BURLINGTON     CLOUDY    32  29  88 W16G24    29.42R WCI  21
FAIRFIELD *    MIX PCPN  30  25  80 W31G37    29.43R WCI  15
FORT MADISON * CLOUDY    34  30  86 W20G28    29.45R WCI  22
KEOKUK *       CLOUDY    32  28  86 W20G30    29.46R WCI  20
OSKALOOSA *    CLOUDY    28  25  86 W28       29.47R WCI  13
CENTERVILLE *  CLOUDY    28  25  86 W17G28    29.52R WCI  16
OTTUMWA        CLOUDY    29  23  78 W22G32    29.45R WCI  15
WASHINGTON *   LGT SNOW  30  30 100 W25G35    29.41R WCI  16
$$

ABBREVIATIONS USED IN REMARKS
   TC - TEMPERATURES IN CELSIUS
  WCI - WIND CHILL INDEX
   HX - HEAT INDEX
  VSB - VISIBILITY
$$




USA.gov is the U.S. government's official web portal to all federal, state and local government web resources and services.